Weather History for KFKL - October, 2013

Change the Weather History Date:

Friday, October 18, 2013

  Actual Average Record
Temperature  
Mean Temperature 52 °F -  
Max Temperature 59 °F 59 °F 83 °F (1938)
Min Temperature 44 °F 38 °F 25 °F (1937)
Degree Days  
Heating Degree Days 14    
Growing Degree Days 2 (Base 50)    
Moisture  
Dew Point 39 °F    
Average Humidity 66    
Maximum Humidity 87    
Minimum Humidity 44    
Precipitation  
Precipitation 0.03 in - - ()
Sea Level Pressure  
Sea Level Pressure 29.95 in    
Wind  
Wind Speed 11 mph (SW)    
Max Wind Speed 16 mph    
Max Gust Speed 22 mph    
Visibility 10 miles    
Events      
Averages and records for this station are not official NWS values.
T = Trace of Precipitation, MM = Missing Value Source: NWS Daily Summary

Daily Weather History Graph

Daily Weather History Graph

Search for Another Location

Airport or City:

Trip Planner

Search our weather history database for the weather conditions in past years. The results will help you decide how hot, cold, wet, or windy it might be!

Date:

Astronomy

Oct. 18, 2013 Rise Set
Actual Time 7:34 AM EDT 6:33 PM EDT
Civil Twilight 7:06 AM EDT 7:01 PM EDT
Nautical Twilight 6:34 AM EDT 7:33 PM EDT
Astronomical Twilight 6:02 AM EDT 8:05 PM EDT
Moon 6:22 PM EDT (10/18) 7:08 AM EDT (10/18)
Length of Visible Light 11h 54m
Length of Day
10h 58m
Full, 100% of the Moon is Illuminated
Oct 18
Full
Oct 18
Full
Oct 26
Last Quarter
Nov 3
New
Nov 10
First Quarter

Hourly Weather History & Observations

Time (EDT) Temp. Windchill Dew Point Humidity Pressure Visibility Wind Dir Wind Speed Gust Speed Precip Events Conditions
12:15 AM 46.4 °F 41.9 °F 42.8 °F 87% 29.87 in 5.0 mi WSW 9.2 mph - 0.02 in   Overcast
12:35 AM 46.4 °F 40.7 °F 42.8 °F 87% 29.86 in 10.0 mi WSW 12.7 mph 18.4 mph 0.03 in   Overcast
12:55 AM 46.4 °F 41.5 °F 42.8 °F 87% 29.87 in 10.0 mi WSW 10.4 mph 16.1 mph 0.03 in   Overcast
1:15 AM 46.4 °F 41.5 °F 42.8 °F 87% 29.87 in 10.0 mi WSW 10.4 mph 18.4 mph N/A   Overcast
1:35 AM 46.4 °F 40.7 °F 42.8 °F 87% 29.87 in 10.0 mi SW 12.7 mph 17.3 mph N/A   Overcast
1:55 AM 46.4 °F 41.5 °F 42.8 °F 87% 29.88 in 10.0 mi SW 10.4 mph 16.1 mph N/A   Overcast
2:15 AM 46.4 °F 41.1 °F 41.0 °F 81% 29.87 in 10.0 mi SW 11.5 mph 19.6 mph N/A   Overcast
2:35 AM 46.4 °F 41.5 °F 42.8 °F 87% 29.88 in 10.0 mi WSW 10.4 mph 21.9 mph N/A   Overcast
2:55 AM 46.4 °F 40.4 °F 41.0 °F 81% 29.88 in 10.0 mi SW 13.8 mph 17.3 mph N/A   Overcast
3:15 AM 46.4 °F 40.7 °F 41.0 °F 81% 29.88 in 10.0 mi SW 12.7 mph 17.3 mph N/A   Overcast
3:35 AM 46.4 °F 41.5 °F 41.0 °F 81% 29.89 in 10.0 mi SW 10.4 mph - N/A   Overcast
3:55 AM 46.4 °F 40.7 °F 41.0 °F 81% 29.89 in 10.0 mi SW 12.7 mph 17.3 mph N/A   Overcast
4:15 AM 46.4 °F 41.1 °F 41.0 °F 81% 29.89 in 10.0 mi WSW 11.5 mph 17.3 mph N/A   Overcast
4:35 AM 46.4 °F 42.4 °F 41.0 °F 81% 29.90 in 10.0 mi WSW 8.1 mph 17.3 mph N/A   Overcast
4:55 AM 46.4 °F 41.9 °F 41.0 °F 81% 29.91 in 10.0 mi WSW 9.2 mph 16.1 mph N/A   Overcast
5:15 AM 46.4 °F 41.1 °F 41.0 °F 81% 29.91 in 10.0 mi WSW 11.5 mph 17.3 mph N/A   Overcast
5:35 AM 46.4 °F 41.5 °F 41.0 °F 81% 29.91 in 10.0 mi WSW 10.4 mph - N/A   Overcast
5:55 AM 46.4 °F 41.5 °F 39.2 °F 76% 29.92 in 10.0 mi WSW 10.4 mph - N/A   Overcast
6:15 AM 46.4 °F 41.9 °F 39.2 °F 76% 29.92 in 10.0 mi WSW 9.2 mph - N/A   Overcast
6:35 AM 46.4 °F 41.1 °F 39.2 °F 76% 29.92 in 10.0 mi WSW 11.5 mph 19.6 mph N/A   Overcast
6:55 AM 46.4 °F 41.9 °F 39.2 °F 76% 29.93 in 10.0 mi WSW 9.2 mph 16.1 mph N/A   Overcast
7:15 AM 44.6 °F 38.4 °F 39.2 °F 81% 29.93 in 10.0 mi SW 12.7 mph 16.1 mph N/A   Overcast
7:35 AM 44.6 °F 39.7 °F 39.2 °F 81% 29.94 in 10.0 mi SW 9.2 mph - N/A   Overcast
7:55 AM 44.6 °F 39.2 °F 39.2 °F 81% 29.95 in 10.0 mi WSW 10.4 mph - N/A   Overcast
8:15 AM 44.6 °F 39.7 °F 39.2 °F 81% 29.95 in 10.0 mi WSW 9.2 mph - N/A   Overcast
8:35 AM 44.6 °F 39.2 °F 39.2 °F 81% 29.96 in 10.0 mi SW 10.4 mph - N/A   Overcast
8:55 AM 44.6 °F 38.8 °F 39.2 °F 81% 29.97 in 10.0 mi SW 11.5 mph 16.1 mph N/A   Overcast
9:15 AM 44.6 °F 39.2 °F 39.2 °F 81% 29.98 in 10.0 mi WSW 10.4 mph - N/A   Overcast
9:35 AM 46.4 °F 41.9 °F 39.2 °F 76% 29.98 in 10.0 mi SW 9.2 mph - N/A   Mostly Cloudy
9:55 AM 48.2 °F - 39.2 °F 71% 29.98 in 10.0 mi SW 12.7 mph 17.3 mph N/A   Partly Cloudy
10:15 AM 48.2 °F - 39.2 °F 71% 29.99 in 10.0 mi SW 10.4 mph 17.3 mph N/A   Clear
10:35 AM 51.8 °F - 39.2 °F 62% 30.00 in 10.0 mi SW 12.7 mph 16.1 mph N/A   Clear
10:55 AM 51.8 °F - 39.2 °F 62% 30.00 in 10.0 mi West 16.1 mph 20.7 mph N/A   Clear
11:15 AM 53.6 °F - 39.2 °F 58% 30.00 in 10.0 mi WSW 15.0 mph 18.4 mph N/A   Clear
11:35 AM 53.6 °F - 37.4 °F 54% 30.00 in 10.0 mi West 13.8 mph 20.7 mph N/A   Clear
11:55 AM 53.6 °F - 39.2 °F 58% 30.00 in 10.0 mi West 11.5 mph 18.4 mph N/A   Scattered Clouds
12:15 PM 55.4 °F - 39.2 °F 54% 29.99 in 10.0 mi SW 13.8 mph 19.6 mph N/A   Mostly Cloudy
12:35 PM 55.4 °F - 39.2 °F 54% 29.99 in 10.0 mi SW 9.2 mph - N/A   Mostly Cloudy
12:55 PM 55.4 °F - 37.4 °F 51% 29.99 in 10.0 mi WSW 13.8 mph 21.9 mph N/A   Mostly Cloudy
1:15 PM 57.2 °F - 39.2 °F 51% 29.98 in 10.0 mi WSW 11.5 mph 19.6 mph N/A   Mostly Cloudy
1:35 PM 57.2 °F - 39.2 °F 51% 29.98 in 10.0 mi WSW 12.7 mph 20.7 mph N/A   Mostly Cloudy
1:55 PM 57.2 °F - 39.2 °F 51% 29.98 in 10.0 mi SW 16.1 mph 21.9 mph N/A   Overcast
2:15 PM 57.2 °F - 39.2 °F 51% 29.97 in 10.0 mi SW 9.2 mph 16.1 mph N/A   Mostly Cloudy
2:35 PM 57.2 °F - 37.4 °F 48% 29.96 in 10.0 mi SW 12.7 mph 21.9 mph N/A   Mostly Cloudy
2:55 PM 57.2 °F - 37.4 °F 48% 29.96 in 10.0 mi WSW 12.7 mph 17.3 mph N/A   Mostly Cloudy
3:15 PM 57.2 °F - 35.6 °F 44% 29.96 in 10.0 mi WSW 10.4 mph 19.6 mph N/A   Scattered Clouds
3:35 PM 59.0 °F - 39.2 °F 48% 29.96 in 10.0 mi SW 12.7 mph - N/A   Mostly Cloudy
3:55 PM 57.2 °F - 37.4 °F 48% 29.96 in 10.0 mi WSW 12.7 mph 19.6 mph N/A   Scattered Clouds
4:15 PM 59.0 °F - 37.4 °F 45% 29.95 in 10.0 mi SW 9.2 mph 19.6 mph N/A   Mostly Cloudy
4:35 PM 57.2 °F - 35.6 °F 44% 29.95 in 10.0 mi WSW 9.2 mph - N/A   Scattered Clouds
4:55 PM 59.0 °F - 37.4 °F 45% 29.95 in 10.0 mi SW 10.4 mph - N/A   Scattered Clouds
5:15 PM 57.2 °F - 37.4 °F 48% 29.95 in 10.0 mi SW 11.5 mph 17.3 mph N/A   Partly Cloudy
5:35 PM 57.2 °F - 35.6 °F 44% 29.95 in 10.0 mi SSW 10.4 mph 16.1 mph N/A   Clear
5:55 PM 55.4 °F - 35.6 °F 47% 29.95 in 10.0 mi SW 8.1 mph - N/A   Clear
6:15 PM 55.4 °F - 35.6 °F 47% 29.96 in 10.0 mi SW 8.1 mph - N/A   Clear
6:35 PM 51.8 °F - 35.6 °F 54% 29.96 in 10.0 mi SSW 6.9 mph - N/A   Clear
6:55 PM 51.8 °F - 35.6 °F 54% 29.96 in 10.0 mi SSW 5.8 mph - N/A   Clear
7:15 PM 48.2 °F - 35.6 °F 62% 29.96 in 10.0 mi South 5.8 mph - N/A   Clear
7:35 PM 48.2 °F - 35.6 °F 62% 29.96 in 10.0 mi South 8.1 mph - N/A   Clear
7:55 PM 46.4 °F 42.4 °F 35.6 °F 66% 29.96 in 10.0 mi South 8.1 mph - N/A   Clear
8:15 PM 46.4 °F 42.4 °F 35.6 °F 66% 29.97 in 10.0 mi SSW 8.1 mph - N/A   Clear
8:35 PM 46.4 °F 42.4 °F 35.6 °F 66% 29.97 in 10.0 mi SSW 8.1 mph - N/A   Clear
8:55 PM 46.4 °F 41.9 °F 35.6 °F 66% 29.97 in 10.0 mi South 9.2 mph - N/A   Clear
9:15 PM 46.4 °F 41.9 °F 37.4 °F 71% 29.97 in 10.0 mi South 9.2 mph - N/A   Clear
9:35 PM 46.4 °F 42.4 °F 35.6 °F 66% 29.97 in 10.0 mi SSW 8.1 mph - N/A   Clear
9:55 PM 48.2 °F - 37.4 °F 66% 29.97 in 10.0 mi SSW 9.2 mph - N/A   Clear
10:15 PM 50.0 °F - 37.4 °F 62% 29.97 in 10.0 mi SSW 10.4 mph 17.3 mph N/A   Clear
10:35 PM 50.0 °F - 37.4 °F 62% 29.97 in 10.0 mi SSW 10.4 mph 19.6 mph N/A   Clear
10:55 PM 51.8 °F - 37.4 °F 58% 29.97 in 10.0 mi SSW 9.2 mph 17.3 mph N/A   Clear
11:15 PM 50.0 °F - 37.4 °F 62% 29.97 in 10.0 mi SSW 10.4 mph - N/A   Clear
11:35 PM 50.0 °F - 37.4 °F 62% 29.97 in 10.0 mi SW 9.2 mph - N/A   Clear
11:55 PM 50.0 °F - 37.4 °F 62% 29.97 in 10.0 mi SSW 9.2 mph - N/A   Clear